GW5434 Weather Reports


Display with metric or nautical units.
time (UTC)temp
F
wind
direction
speed
MPH
gust
MPH
rain 1hr
in
rain 24hr
in
rain mn
in
humidity
%
barometer
mb
20260904193033 85 345 1.0 3.0 0.00 0.34 0.34 78 1013.9
20260904191514 82 311 2.0 4.0 0.00 0.34 0.34 82 1014.6
20260904190029 81 307 3.0 6.0 0.00 0.34 0.34 85 1015.0
20260904184529 81 250 2.0 7.0 0.00 0.34 0.34 84 1015.4
20260904183029 80 217 2.0 7.0 0.03 0.34 0.34 86 1015.8
20260904181530 80 257 0.0 5.0 0.06 0.34 0.34 90 1015.9
20260904180017 79 208 2.0 5.0 0.06 0.34 0.34 91 1016.3
20260904174529 79 243 0.0 4.0 0.06 0.34 0.34 91 1016.4
20260904173028 79 217 1.0 3.0 0.03 0.31 0.31 90 1016.4
20260904171537 79 288 0.0 3.0 0.00 0.28 0.28 89 1016.3
20260904170035 79 275 1.0 4.0 0.18 0.28 0.28 90 1016.4
20260904164518 78 224 0.0 2.0 0.26 0.28 0.28 90 1016.5
20260904163030 77 219 1.0 3.0 0.28 0.28 0.28 91 1016.6
20260904161531 77 219 1.0 5.0 0.28 0.28 0.28 90 1016.9
20260904160013 78 137 1.0 9.0 0.10 0.10 0.10 87 1017.0
20260904154517 82 152 2.0 3.0 0.02 0.02 0.02 83 1017.0
20260904153028 83 178 0.0 0.0 0.00 0.00 0.00 80 1016.7
20260904151504 82 224 0.0 1.0 0.00 0.00 0.00 80 1016.4
20260904150019 82 37 0.0 1.0 0.00 0.00 0.00 80 1016.3
20260904144511 81 4 1.0 2.0 0.00 0.00 0.00 80 1016.3
20260904143017 81 328 0.0 2.0 0.00 0.00 0.00 81 1016.1
20260904141523 80 297 1.0 5.0 0.00 0.00 0.00 82 1016.1
20260904140005 80 330 1.0 3.0 0.00 0.00 0.00 83 1016.1
20260904134524 79 334 0.0 3.0 0.00 0.00 0.00 84 1016.1
20260904133016 78 302 1.0 3.0 0.00 0.00 0.00 87 1015.9
20260904131523 77 307 0.0 2.0 0.00 0.00 0.00 89 1015.9
20260904130033 76 40 0.0 0.0 0.00 0.00 0.00 90 1016.0
20260904124504 76 113 0.0 0.0 0.00 0.00 0.00 90 1016.0
20260904123012 76 152 0.0 0.0 0.00 0.00 0.00 91 1015.9
20260904121516 75 19 0.0 0.0 0.00 0.00 0.00 92 1015.7
20260904120025 75 19 0.0 0.0 0.00 0.00 0.00 92 1015.6
20260904114535 74 349 0.0 0.0 0.00 0.00 0.00 93 1015.4
20260904113010 74 22 0.0 0.0 0.00 0.00 0.00 93 1015.4
20260904111524 74 22 0.0 0.0 0.00 0.00 0.00 93 1015.3
20260904110022 74 108 0.0 0.0 0.00 0.00 0.00 92 1015.2
20260904104523 75 108 0.0 0.0 0.00 0.00 0.00 92 1015.1
20260904103031 75 108 0.0 0.0 0.00 0.00 0.00 91 1015.1
20260904101511 75 108 0.0 0.0 0.00 0.00 0.00 91 1015.0
20260904100017 75 106 0.0 0.0 0.00 0.00 0.00 91 1014.9
20260904094534 75 128 0.0 0.0 0.00 0.00 0.00 91 1014.9
20260904093028 75 120 0.0 0.0 0.00 0.00 0.00 91 1014.9
20260904091530 75 120 0.0 0.0 0.00 0.00 0.00 91 1014.8
20260904090013 75 120 0.0 0.0 0.00 0.00 0.00 90 1014.8
20260904084518 75 127 0.0 0.0 0.00 0.00 0.00 90 1014.8
20260904083034 75 143 0.0 0.0 0.00 0.00 0.00 90 1014.7
20260904081529 75 148 0.0 0.0 0.00 0.00 0.00 91 1014.7
20260904080030 75 148 0.0 0.0 0.00 0.00 0.00 91 1014.7
20260904074516 75 148 0.0 0.0 0.00 0.00 0.00 90 1014.7
20260904073023 75 148 0.0 0.0 0.00 0.00 0.00 91 1014.7
20260904071524 75 148 0.0 0.0 0.00 0.00 0.00 90 1014.7
20260904070029 75 148 0.0 0.0 0.00 0.00 0.00 91 1014.8
20260904064532 75 148 0.0 0.0 0.00 0.00 0.00 91 1014.9
20260904063024 75 148 0.0 0.0 0.00 0.00 0.00 91 1015.0
20260904061521 75 148 0.0 0.0 0.00 0.00 0.00 91 1015.0
20260904060027 75 148 0.0 0.0 0.00 0.00 0.00 90 1015.0
20260904054532 75 119 0.0 0.0 0.00 0.00 0.00 89 1014.9
20260904053032 75 119 0.0 0.0 0.00 0.00 0.00 90 1015.0
20260904051518 75 103 0.0 0.0 0.00 0.00 0.00 89 1015.0
20260904050025 75 111 0.0 0.0 0.00 0.00 0.00 90 1015.0
20260904044503 75 110 0.0 0.0 0.00 0.00 0.00 89 1015.1
20260904043007 75 110 0.0 0.0 0.00 0.00 0.00 90 1015.0
20260904041514 75 110 0.0 0.0 0.00 0.00 0.00 89 1015.1
20260904040021 75 143 0.0 0.0 0.00 0.00 0.00 89 1015.1
20260904034503 75 143 0.0 0.0 0.00 0.00 0.00 89 1015.2
20260904033007 76 143 0.0 0.0 0.00 0.00 0.00 88 1015.3
20260904031508 76 154 0.0 0.0 0.00 0.00 0.00 88 1015.5
20260904030017 77 155 0.0 0.0 0.00 0.00 0.00 87 1015.5
20260904024520 77 154 0.0 0.0 0.00 0.00 0.00 87 1015.6
20260904023003 77 15 0.0 0.0 0.00 0.00 0.00 85 1015.6
20260904021509 78 331 0.0 0.0 0.00 0.00 0.00 85 1015.5
20260904020012 78 117 0.0 0.0 0.00 0.00 0.00 84 1015.5
20260904014518 78 165 0.0 0.0 0.00 0.00 0.00 85 1015.4
20260904013025 79 98 0.0 0.0 0.00 0.00 0.00 83 1015.2
20260904011504 79 271 0.0 0.0 0.00 0.00 0.00 82 1014.9
20260904010015 79 271 0.0 0.0 0.00 0.00 0.00 81 1014.9
20260904004514 80 286 0.0 0.0 0.00 0.00 0.00 81 1014.8
20260904003025 81 285 1.0 3.0 0.00 0.00 0.00 80 1014.7
20260904001524 82 327 0.0 3.0 0.00 0.00 0.00 78 1014.4
20260904000006 83 279 0.0 4.0 0.00 0.00 0.00 77 1014.3
20260903234513 85 209 0.0 2.0 0.00 0.00 0.00 75 1014.4
20260903233015 86 211 0.0 0.0 0.00 0.00 0.00 75 1014.3
20260903231532 87 148 0.0 3.0 0.00 0.00 0.00 73 1014.3
20260903230032 87 129 1.0 2.0 0.00 0.00 0.00 73 1014.2
20260903224525 87 139 0.0 3.0 0.00 0.00 0.00 73 1014.2
20260903223013 88 276 1.0 4.0 0.00 0.00 0.00 73 1014.1
20260903221520 90 215 1.0 5.0 0.00 0.00 0.00 72 1013.8
20260903220030 92 221 0.0 0.0 0.00 0.00 0.00 69 1013.9
20260903214537 92 175 0.0 0.0 0.00 0.00 0.00 67 1013.7
20260903213011 92 322 1.0 1.0 0.00 0.00 0.00 65 1013.3
20260903211514 93 277 0.0 5.0 0.00 0.00 0.00 63 1013.3
20260903210020 93 290 2.0 3.0 0.00 0.00 0.00 63 1013.5
20260903204527 93 307 3.0 8.0 0.00 0.00 0.00 62 1013.7
20260903203029 94 316 1.0 3.0 0.00 0.00 0.00 60 1013.8
20260903201513 94 238 1.0 3.0 0.00 0.00 0.00 54 1014.0
20260903200016 95 323 2.0 4.0 0.00 0.00 0.00 55 1014.1
20260903194506 94 72 1.0 7.0 0.00 0.00 0.00 55 1014.2